GEC8220 EDDF-MMSM

Flight info

Callsign GEC8220
Flight time N/A
Altitude 32000
Route OBOKA5G/25C OBOKA Z29 TORNU DCT BATAK DCT GALSO Q63 ERING L179 UGBET Q60 OKSAW DCT BIBPE DCT FELCA DCT FADZU DCT OFSOX DCT SLANY DCT TOBOR/M084F330 NATC ELSIR/N0478F340 DCT ALLEX Q822 AJJAY/N0476F360 Q822 ENE Q480 BEEKN Q439 FOXWD Q22 CATLN Q56 HRV/N0481F380 DCT TBD M345 KENGS M575 CLONN UM575 TAM UJ14 AVSUB/N0479F390 UJ47 JUCRO/N0482F380 DCT TOREO TOREO1B
Aircraft B77L/H-SDE1E2E3FGHIJ2J3J4J5M1RWXY/LB1D1

Departure

Time 2026-05-06 10:17
Airport Frankfurt Main Airport (EDDF)

Arrival

Time N/A
Airport Felipe Ángeles International Airport (MMSM)
Time Latitude Longitude Altitude Speed Heading
2026-05-06 09:35 50.04059 8.54778 338 ft 0 kts 70°
2026-05-06 10:05 50.04058 8.54775 354 ft 2 kts 70°
2026-05-06 10:06 50.04049 8.54736 362 ft 4 kts 69°
2026-05-06 10:06 50.04040 8.54697 358 ft 4 kts 69°
2026-05-06 10:06 50.04033 8.54667 361 ft 4 kts 98°
2026-05-06 10:06 50.04036 8.54651 360 ft 4 kts 158°
2026-05-06 10:07 50.04061 8.54640 363 ft 4 kts 165°
2026-05-06 10:07 50.04079 8.54632 361 ft 1 kts 160°
2026-05-06 10:07 50.04082 8.54630 360 ft 1 kts 160°
2026-05-06 10:10 50.04076 8.54634 354 ft 2 kts 160°
2026-05-06 10:11 50.04055 8.54645 360 ft 4 kts 160°
2026-05-06 10:11 50.04023 8.54664 358 ft 6 kts 160°
2026-05-06 10:11 50.03980 8.54684 359 ft 7 kts 171°
2026-05-06 10:11 50.03939 8.54651 362 ft 7 kts 230°
2026-05-06 10:12 50.03914 8.54578 360 ft 8 kts 247°
2026-05-06 10:12 50.03891 8.54483 359 ft 10 kts 250°
2026-05-06 10:12 50.03859 8.54372 358 ft 12 kts 239°
2026-05-06 10:12 50.03813 8.54262 360 ft 13 kts 240°
2026-05-06 10:13 50.03778 8.54132 355 ft 13 kts 250°
2026-05-06 10:13 50.03744 8.53990 356 ft 14 kts 250°
2026-05-06 10:13 50.03710 8.53843 353 ft 15 kts 250°
2026-05-06 10:13 50.03672 8.53688 354 ft 15 kts 250°
2026-05-06 10:14 50.03632 8.53532 348 ft 15 kts 248°
2026-05-06 10:14 50.03595 8.53376 350 ft 15 kts 250°
2026-05-06 10:14 50.03558 8.53220 350 ft 15 kts 250°
2026-05-06 10:14 50.03519 8.53062 351 ft 15 kts 248°
2026-05-06 10:15 50.03480 8.52906 337 ft 15 kts 249°
2026-05-06 10:15 50.03439 8.52752 337 ft 15 kts 248°
2026-05-06 10:15 50.03421 8.52677 337 ft 6 kts 249°
2026-05-06 10:15 50.03402 8.52619 334 ft 6 kts 229°
2026-05-06 10:16 50.03369 8.52598 335 ft 1 kts 188°
2026-05-06 10:16 50.03331 8.52595 337 ft 21 kts 182°
2026-05-06 10:16 50.02946 8.52596 339 ft 88 kts 180°
2026-05-06 10:16 50.02141 8.52605 339 ft 145 kts 179°
2026-05-06 10:17 50.00962 8.52608 369 ft 184 kts 181°
2026-05-06 10:17 49.99707 8.52648 852 ft 184 kts 180°
2026-05-06 10:17 49.98408 8.52727 1358 ft 189 kts 180°
2026-05-06 10:17 49.97085 8.52829 1805 ft 191 kts 179°
2026-05-06 10:18 49.95755 8.52925 2181 ft 197 kts 180°
2026-05-06 10:18 49.94341 8.53016 2376 ft 211 kts 184°
2026-05-06 10:18 49.92939 8.52312 2488 ft 220 kts 222°
2026-05-06 10:18 49.92171 8.50236 2781 ft 233 kts 261°
2026-05-06 10:19 49.92314 8.47671 3136 ft 249 kts 290°
2026-05-06 10:19 49.93292 8.45409 3641 ft 259 kts 311°
2026-05-06 10:19 49.94619 8.43492 4267 ft 264 kts 316°
2026-05-06 10:19 49.96032 8.41634 4857 ft 268 kts 317°
2026-05-06 10:20 49.97471 8.39769 5473 ft 270 kts 317°
2026-05-06 10:20 49.98918 8.37886 6165 ft 272 kts 317°
2026-05-06 10:20 50.00369 8.35979 6789 ft 275 kts 317°
2026-05-06 10:20 50.01834 8.34047 7381 ft 278 kts 317°
2026-05-06 10:21 50.03313 8.32079 7979 ft 281 kts 317°
2026-05-06 10:21 50.04807 8.30082 8580 ft 284 kts 316°
2026-05-06 10:21 50.06306 8.28065 9204 ft 288 kts 316°
2026-05-06 10:21 50.07830 8.26007 9778 ft 291 kts 316°
2026-05-06 10:22 50.09377 8.23912 10148 ft 302 kts 316°
2026-05-06 10:22 50.11011 8.21693 10288 ft 321 kts 316°
2026-05-06 10:22 50.12743 8.19336 10444 ft 340 kts 316°
2026-05-06 10:22 50.14575 8.16841 10589 ft 360 kts 316°
2026-05-06 10:23 50.16499 8.14219 10923 ft 373 kts 316°
2026-05-06 10:23 50.18471 8.11533 11507 ft 381 kts 316°
2026-05-06 10:23 50.20482 8.08790 12195 ft 386 kts 316°
2026-05-06 10:23 50.22513 8.06017 12961 ft 389 kts 317°
2026-05-06 10:24 50.24556 8.03225 13692 ft 393 kts 317°
2026-05-06 10:24 50.26627 8.00390 14316 ft 397 kts 316°
2026-05-06 10:24 50.28710 7.97531 14978 ft 401 kts 316°
2026-05-06 10:24 50.30816 7.94637 15622 ft 405 kts 316°
2026-05-06 10:25 50.32939 7.91717 16256 ft 409 kts 316°
2026-05-06 10:25 50.35087 7.88758 16894 ft 413 kts 316°
2026-05-06 10:25 50.37225 7.85809 17511 ft 417 kts 316°
2026-05-06 10:25 50.39432 7.82762 18125 ft 421 kts 316°
2026-05-06 10:26 50.41641 7.79706 18692 ft 424 kts 316°
2026-05-06 10:26 50.43858 7.76637 19291 ft 427 kts 316°
2026-05-06 10:26 50.46061 7.73583 19835 ft 430 kts 316°
2026-05-06 10:26 50.48313 7.70458 20403 ft 434 kts 316°
2026-05-06 10:27 50.50586 7.67298 20924 ft 437 kts 316°
2026-05-06 10:27 50.52871 7.64117 21456 ft 441 kts 316°
2026-05-06 10:27 50.55172 7.60911 21972 ft 444 kts 316°
2026-05-06 10:27 50.57497 7.57667 22497 ft 448 kts 315°
2026-05-06 10:28 50.59831 7.54406 23012 ft 451 kts 316°
2026-05-06 10:28 50.62187 7.51108 23478 ft 455 kts 316°
2026-05-06 10:28 50.64560 7.47783 23923 ft 458 kts 316°
2026-05-06 10:28 50.66941 7.44443 24388 ft 459 kts 316°
2026-05-06 10:29 50.69328 7.41088 24836 ft 461 kts 316°
2026-05-06 10:29 50.71713 7.37665 25280 ft 463 kts 313°
2026-05-06 10:29 50.73864 7.33886 25702 ft 464 kts 306°
2026-05-06 10:29 50.75755 7.29760 26122 ft 465 kts 301°
2026-05-06 10:30 50.77370 7.25319 26505 ft 466 kts 295°
2026-05-06 10:30 50.78827 7.20753 26912 ft 468 kts 294°
2026-05-06 10:30 50.80282 7.16123 27291 ft 471 kts 295°
2026-05-06 10:30 50.81751 7.11477 27676 ft 474 kts 295°
2026-05-06 10:31 50.83243 7.06815 28060 ft 476 kts 295°
2026-05-06 10:31 50.84753 7.02132 28432 ft 479 kts 295°
2026-05-06 10:31 50.86273 6.97420 28766 ft 482 kts 296°
2026-05-06 10:31 50.87797 6.92689 29087 ft 485 kts 296°
2026-05-06 10:32 50.89334 6.87917 29426 ft 487 kts 296°
2026-05-06 10:32 50.90873 6.83135 29843 ft 487 kts 296°
2026-05-06 10:32 50.92388 6.78422 30244 ft 485 kts 295°
2026-05-06 10:32 50.93915 6.73659 30665 ft 483 kts 295°
2026-05-06 10:33 50.95435 6.68910 31077 ft 482 kts 295°
2026-05-06 10:33 50.96964 6.64119 31464 ft 480 kts 294°
2026-05-06 10:33 50.98450 6.59455 31779 ft 481 kts 294°
2026-05-06 10:33 50.99963 6.54693 31808 ft 484 kts 294°
2026-05-06 10:34 51.02981 6.45176 31813 ft 480 kts 294°
2026-05-06 10:34 51.05966 6.35727 31807 ft 477 kts 294°
2026-05-06 10:35 51.08926 6.26314 31824 ft 475 kts 294°
2026-05-06 10:35 51.11876 6.16906 31829 ft 475 kts 294°